Volver al catálogo

COSMOS 2251 DEB

ActivoLEO
NORAD 39585·DEBRIS·🇷🇺 Russia

Lanzado Jun 16, 1993 desde Plesetsk Cosmodrome

Loading…

Próximos Pases (próximas 24 horas)

TLE

ActualizadoSource: Space-Track

Época: Sep 13, 2026, 09:19 UTC

1 39585U 93036BUQ 26256.38848321  .00000535  00000-0  11634-3 0  9990
2 39585  74.0412 138.2192 0066900 190.7370 169.2372 14.59216303665263

Sigue COSMOS 2251 DEB en tiempo real con AllMySat

Download on the App Store